Location: Gorze? G�rny
(49.8500°N, 19.5000°E)
Time: 13:04:00
(UTC+00:00)

Cosmos 2369 Rocket - Pass Details

Date: 13 May 2021
Orbit: 827 x 854 km, 71.0° (Epoch: 22 June)

Event Time Altitude Azimuth Distance (km) Brightness Sun altitude
Exits shadow 23:27:55 10° 258° (WSW) 2,476 4.4 -20.6°
Reaches altitude 10° 23:28:00 10° 259° (WSW) 2,448 4.4 -20.6°
Maximum altitude 23:32:45 27° 316° (NW) 1,555 3.9 -20.5°
Drops below altitude 10° 23:37:33 10° 14° (NNE) 2,474 5.8 -20.3°
Sets 23:40:24 0° 27° (NNE) 3,417 6.9 -20.2°
